Regional Weather Roundup
Issued by NWS

Home | Current Version | Previous Version | Graphics & Text | Print | Product List | Glossary On
Versions: 1 2 3 4 5 6 7 8 9 10 11 12 13 14 15 16 17 18 19 20 21 22 23 24 25 26 27 28 29 30 31 32 33 34 35 36 37 38 39 40 41 42 43 44 45 46 47 48 49 50
000
ASUS44 KMEG 101810
RWRTN
TENNESSEE HOURLY STATE WEATHER ROUNDUP
NATIONAL WEATHER SERVICE MEMPHIS TN
1200 PM CST WED FEB 10 2016

TNZ002-004-019-021-049-052-054-088>092-101900-
WEST TENNESSEE

CITY           SKY/WX    TMP DP  RH WIND       PRES   REMARKS
MEMPHIS INTL   MOSUNNY   36   8  31 W7        30.26F WCI  30
NWS MEMPHIS      N/A     34 N/A N/A MISG        N/A
JACKSON        SUNNY     32   7  35 W13       30.27F WCI  22
DYERSBURG      MOSUNNY   30   9  40 SW10G16   30.27F WCI  21
UNION CITY     MOSUNNY   27  10  50 SW8       30.23F WCI  18
PARIS          SUNNY     25   7  46 W8        30.21F WCI  16
$$

TNZ008-025-027-028-033-062-065-066-101900-
NORTH MIDDLE TENNESSEE

CITY           SKY/WX    TMP DP  RH WIND       PRES   REMARKS
NASHVILLE      PTSUNNY   26  10  50 W12       30.21S WCI  16
CLARKSVILLE    SUNNY     24   9  52 NW7       30.20F WCI  16
SMYRNA         MOSUNNY   25  12  57 W14       30.22F WCI  13
COOKEVILLE     MOSUNNY   27   9  46 W14       30.13S WCI  15
CROSSVILLE     PTSUNNY   20   6  55 W20G26    30.06S WCI   4
$$

TNZ061-075-076-078-094-096-097-101900-
SOUTH MIDDLE TENNESSEE

CITY           SKY/WX    TMP DP  RH WIND       PRES   REMARKS
FAYETTEVILLE   SUNNY     30  10  43 NW7       30.18F WCI  23
TULLAHOMA      PTSUNNY   25  12  58 NW12      30.17S WCI  14
WINCHESTER     MOSUNNY   27  12  54 NW12      30.17F WCI  16
MCMINNVILLE    CLOUDY    21  10  63 W13       30.17R WCI   9
COLUMBIA       SUNNY     28  12  50 VRB5      30.18F WCI  23
SHELBYVILLE    MOSUNNY   28  16  59 W10       30.19F WCI  19
$$

TNZ017-018-042-046-047-101900-
NORTHEAST TENNESSEE

CITY           SKY/WX    TMP DP  RH WIND       PRES   REMARKS
TRI CITIES     FLURRIES  21  12  68 W14       29.98F WCI   8
$$

TNZ012-013-036-069-073-074-101900-
CENTRAL EAST TENNESSEE

CITY           SKY/WX    TMP DP  RH WIND       PRES   REMARKS
KNOXVILLE      PTSUNNY   26   8  46 W17G24    30.09F WCI  13
OAK RIDGE      MOSUNNY   28   5  37 W10G22    30.10F WCI  19
GATLINBURG     CLOUDY    23   9  54 W9        30.07F WCI  13
MORRISTOWN     CLOUDY    23   9  54 W14G24    30.02F WCI  11
$$

TNZ083-085-099-101900-
SOUTHEAST TENNESSEE

CITY           SKY/WX    TMP DP  RH WIND       PRES   REMARKS
CHATTANOOGA    MOSUNNY   29   8  41 W12G21    30.16F WCI  19
$$

SKY/WX REPORTED AS FAIR MEANS FEW OR NO CLOUDS BELOW
12 THOUSAND FEET.




USA.gov is the U.S. government's official web portal to all federal, state and local government web resources and services.